Tracking 19164 objects as of 21-May-2018
HD Live streaming from Space Station
objects crossing your sky now

GEOSAT

Track GEOSAT now!
10-day predictions
GEOSAT is classified as:


NORAD ID: 15595
Int'l Code: 1985-021A
Perigee: 770.8 km
Apogee: 773.2 km
Inclination: 108.0 °
Period: 100.1 minutes
Semi major axis: 7143 km
RCS: 9.5926 m2 (large)
Launch date: March 13, 1985
Source: United States (US)
Launch site: AIR FORCE WESTERN TEST RANGE (AFWTR)
aabbcc
Your satellite tracking list
Your tracking list is empty




NASA's NSSDC Master Catalog

Two Line Element Set (TLE):
1 15595U 85021A   18140.80078486 -.00000064  00000-0  23427-4 0  9999
2 15595 108.0336  76.1029 0001703 256.0090 127.0557 14.38072798738910
Source of the keplerian elements: AFSPC